Retour au catalogue

ATLAS 5 CENTAUR DEB

LostHEO
NORAD 46860·DEBRIS·🇺🇸 United States

Lancé Oct 17, 2018 depuis Cape Canaveral Space Force Station

Loading…

Prochains Passages (prochaines 24 heures)

TLE

PériméSource: Space-Track

Époque: Jan 24, 2025, 11:04 UTC

1 46860U 18079DR  25024.46124850 -.00000082  00000-0  00000-0 0  9993
2 46860  12.8407 109.8096 5086858 165.5802 217.1634  1.65575031 25563

Suivez ATLAS 5 CENTAUR DEB en temps réel avec AllMySat

Download on the App Store